{"data":{"norad_id":51780,"intl_designator":"2022-017N","name":"STARLINK-3617","alt_names":[],"object_type":"PAYLOAD","status":"ACTIVE","operator":null,"country":"US","launch_date":"2022-02-25","launch_site_code":"AFWTR","launch_vehicle":null,"mission":null,"orbit_class":"UNKNOWN","rcs_meters":null,"size_class":null,"mass_kg":null,"dimensions":null,"purposes":["comms"],"wikipedia_slug":null,"has_3d_model":false,"image_url":null,"decayed_at":null,"tle_current":{"epoch":"2026-09-19T11:43:09.513120Z","epoch_age_seconds":139076,"freshness":"FRESH","line1":"1 51780U 22017N   26262.48830455  .00000567  00000+0  27914-4 0  9992","line2":"2 51780  53.1598 176.1199 0001052  95.0635 265.0488 15.34385499251859","mean_motion":15.34385499,"eccentricity":0.0001052,"inclination_deg":53.1598,"raan_deg":176.1199,"arg_perigee_deg":95.0635,"mean_anomaly_deg":265.0488,"bstar":2.7914e-5,"rev_number":25185,"period_min":93.8486450073,"perigee_km":462.02667964706,"apogee_km":463.46600150192,"semimajor_km":6840.8833405745,"source":"CELESTRAK","updated_at":"2026-09-20T09:00:39.938374Z"}}}